{"data":{"norad_id":59024,"epoch":"2026-09-19T04:29:40.420896Z","epoch_age_seconds":269147,"freshness":"STALE","line1":"1 59024U 24038B   26262.18727339  .00000233  00000+0  17974-4 0  9994","line2":"2 59024  43.0007 323.8391 0000874 263.8633  96.2119 15.27576913144930","mean_motion":15.27576913,"eccentricity":8.74e-5,"inclination_deg":43.0007,"raan_deg":323.8391,"arg_perigee_deg":263.8633,"mean_anomaly_deg":96.2119,"bstar":1.7974e-5,"rev_number":14493,"period_min":94.266939212376,"perigee_km":482.45867117108,"apogee_km":483.65800811645,"semimajor_km":6861.1953396438,"source":"CELESTRAK","updated_at":"2026-09-21T09:00:34.028144Z"}}